Home   Weather   Feldkirch   Past weeks

Flag for Austria Past Weather in Feldkirch, Vorarlberg, Austria — Yesterday and Last 2 Weeks

Now
76 °F

Mild.


Feels Like: 78 °F
Forecast: 62 / 85 °F
Wind: 1 mph from North

Location: Feldkirch

Current Time: Jul 29, 2017 at 1:55:46 pm

Latest Report: Jul 29, 2017 at 1:00 pm


Visibility: N/A

Pressure: 30.00 "Hg

Humidity: 64%

Dew Point: 63 °F

Location of FeldkirchLocation

Past Weather in Feldkirch — Graph

°F

Feldkirch Temperature Yesterday

Maximum temperature yesterday: 70 °F (at 6:00 pm)
Minimum temperature yesterday: 60 °F (at 11:00 pm)
Average temperature yesterday: 64 °F

High & Low Weather Summary for the Past Weeks

 TemperatureHumidityPressure
High87 °F (Jul 19, 4:00 pm)98% (Jul 23, 7:00 am)30.28 "Hg (Jul 23, 7:00 am)
Low52 °F (Jul 16, 5:00 am)41% (Jul 17, 6:00 pm)29.74 "Hg (Jul 21, 6:00 pm)
Average65 °F77%29.99 "Hg
* Reported Jul 14 12:00 pm — Jul 29 12:00 pm, Feldkirch. Weather by CustomWeather, © 2017

Note: Actual official high and low records may vary slightly from our data, if they occured in-between our weather recording intervals... More about our weather records

Advertising

Feldkirch Weather History for the Previous 24 Hours

Scroll right to see more
 ConditionsComfort  
Time TempWeatherWind HumidityBarometerVisibility
12:00 pm
Sat, Jul 29
73 °FMild.1 mph68%30.02 "HgN/A
11:00 am72 °FScattered clouds.1 mph72%30.03 "Hg19 mi
10:00 am70 °FMild.No wind73%30.04 "HgN/A
9:00 am65 °FMild.No wind80%30.06 "HgN/A
8:00 am61 °FCool.1 mph90%30.07 "HgN/A
7:00 am57 °FPassing clouds.1 mph95%30.08 "Hg19 mi
6:00 am57 °FCool.1 mph96%30.06 "HgN/A
5:00 am58 °FCool.1 mph92%30.05 "HgN/A
4:00 am60 °FCool.1 mph88%30.05 "HgN/A
3:00 am61 °FCool.No wind84%30.05 "HgN/A
2:00 am62 °FCool.No wind83%30.05 "HgN/A
1:00 am61 °FCool.1 mph92%30.05 "HgN/A
12:00 am60 °FCool.1 mph92%30.05 "HgN/A
11:00 pm
Fri, Jul 28
60 °FCool.1 mph91%30.05 "HgN/A
10:00 pm61 °FCool.1 mph90%30.04 "HgN/A
9:00 pm64 °FMild.1 mph83%30.03 "HgN/A
8:00 pm67 °FMild.1 mph72%30.01 "HgN/A
7:00 pm69 °FMild.1 mph62%30.01 "HgN/A
6:00 pm70 °FMild.1 mph63%30.00 "HgN/A
5:00 pm69 °FMild.1 mph64%30.01 "HgN/A
4:00 pm69 °FMild.1 mph63%30.02 "HgN/A
3:00 pm66 °FMild.1 mph72%30.03 "HgN/A
2:00 pm64 °FMild.3 mph72%30.03 "HgN/A
1:00 pm65 °FMild.2 mph78%30.03 "HgN/A
Weather by CustomWeather, © 2017

See weather overviewHow to use our weather pages